TimeEST,TemperatureF,Dew PointF,Humidity,Sea Level PressureIn,VisibilityMPH,Wind Direction,Wind SpeedMPH,Gust SpeedMPH,PrecipitationIn,Events,Conditions,WindDirDegrees,DateUTC
12:15 AM,61.9,61.9,100,30.00,10.0,Calm,Calm,-,N/A,,Mostly Cloudy,0,2012-12-10 05:15:00
12:35 AM,62.6,62.6,100,29.99,10.0,Calm,Calm,-,N/A,,Mostly Cloudy,0,2012-12-10 05:35:00
12:55 AM,63.1,63.1,100,29.98,10.0,SSE,3.5,-,N/A,,Overcast,160,2012-12-10 05:55:00
1:15 AM,63.0,63.0,100,29.97,7.0,Calm,Calm,-,N/A,,Scattered Clouds,0,2012-12-10 06:15:00
1:35 AM,63.0,63.0,100,29.97,7.0,Calm,Calm,-,N/A,,Mostly Cloudy,0,2012-12-10 06:35:00
1:55 AM,62.6,62.6,100,29.96,7.0,Calm,Calm,-,N/A,,Overcast,0,2012-12-10 06:55:00
2:15 AM,62.6,62.6,100,29.96,7.0,Calm,Calm,-,N/A,,Overcast,0,2012-12-10 07:15:00
2:35 AM,62.6,62.6,100,29.95,7.0,Calm,Calm,-,N/A,,Overcast,0,2012-12-10 07:35:00
2:55 AM,62.6,62.6,100,29.95,7.0,Calm,Calm,-,N/A,,Overcast,0,2012-12-10 07:55:00
3:15 AM,62.6,62.6,100,29.94,7.0,Calm,Calm,-,N/A,,Overcast,0,2012-12-10 08:15:00
3:35 AM,62.6,62.6,100,29.93,5.0,Calm,Calm,-,N/A,,Overcast,0,2012-12-10 08:35:00
3:55 AM,62.2,62.2,100,29.92,5.0,Calm,Calm,-,N/A,,Overcast,0,2012-12-10 08:55:00
4:15 AM,62.6,62.6,100,29.91,5.0,Calm,Calm,-,N/A,,Overcast,0,2012-12-10 09:15:00
4:35 AM,62.8,62.8,100,29.90,5.0,Calm,Calm,-,N/A,,Overcast,0,2012-12-10 09:35:00
4:55 AM,63.5,63.5,100,29.90,3.0,Calm,Calm,-,N/A,,Overcast,0,2012-12-10 09:55:00
5:15 AM,63.5,63.5,100,29.89,3.0,Calm,Calm,-,N/A,,Overcast,0,2012-12-10 10:15:00
5:35 AM,63.5,63.5,100,29.88,1.2,Calm,Calm,-,N/A,,Overcast,0,2012-12-10 10:35:00
5:55 AM,63.5,63.5,100,29.89,0.8,Calm,Calm,-,N/A,,Overcast,0,2012-12-10 10:55:00
6:15 AM,63.5,63.5,100,29.89,0.8,Calm,Calm,-,N/A,,Overcast,0,2012-12-10 11:15:00
6:35 AM,63.5,63.5,100,29.90,0.5,Calm,Calm,-,N/A,Fog,Fog,0,2012-12-10 11:35:00
6:55 AM,63.5,63.5,100,29.88,0.2,Calm,Calm,-,N/A,Fog,Fog,0,2012-12-10 11:55:00
7:15 AM,63.5,63.5,100,29.88,0.5,Calm,Calm,-,N/A,Fog,Fog,0,2012-12-10 12:15:00
7:35 AM,63.5,63.5,100,29.88,0.5,South,3.5,-,N/A,Fog,Fog,180,2012-12-10 12:35:00
7:55 AM,63.7,63.7,100,29.88,1.8,Calm,Calm,-,N/A,,Overcast,0,2012-12-10 12:55:00
8:15 AM,64.0,64.0,100,29.88,1.0,SSW,3.5,-,N/A,,Overcast,210,2012-12-10 13:15:00
8:35 AM,64.0,64.0,100,29.88,1.0,Calm,Calm,-,N/A,,Overcast,0,2012-12-10 13:35:00
8:55 AM,64.4,64.4,100,29.88,2.5,SW,4.6,-,N/A,,Overcast,220,2012-12-10 13:55:00
9:15 AM,64.8,64.8,100,29.88,2.5,SSW,6.9,-,N/A,,Overcast,210,2012-12-10 14:15:00
9:35 AM,64.9,64.9,100,29.88,2.5,SSW,4.6,-,N/A,,Overcast,210,2012-12-10 14:35:00
9:55 AM,65.3,65.3,100,29.88,3.0,SW,5.8,-,N/A,,Overcast,230,2012-12-10 14:55:00
10:15 AM,65.8,65.8,100,29.88,5.0,SSW,5.8,-,N/A,,Overcast,210,2012-12-10 15:15:00
10:35 AM,66.4,65.8,98,29.87,5.0,SW,3.5,-,N/A,,Overcast,220,2012-12-10 15:35:00
10:55 AM,67.1,65.8,96,29.86,7.0,SW,8.1,-,N/A,,Overcast,230,2012-12-10 15:55:00
11:15 AM,68.0,66.2,94,29.85,7.0,SW,12.7,19.6,N/A,,Overcast,230,2012-12-10 16:15:00
11:35 AM,68.5,65.3,89,29.84,10.0,SW,8.1,-,N/A,,Overcast,220,2012-12-10 16:35:00
11:55 AM,68.9,65.1,88,29.84,10.0,SW,10.4,16.1,N/A,,Overcast,220,2012-12-10 16:55:00
12:15 PM,70.2,64.8,83,29.82,10.0,SSW,10.4,19.6,N/A,,Mostly Cloudy,210,2012-12-10 17:15:00
12:35 PM,70.9,63.0,76,29.81,10.0,SW,11.5,19.6,N/A,,Mostly Cloudy,220,2012-12-10 17:35:00
12:55 PM,71.6,61.2,70,29.80,10.0,SW,13.8,24.2,N/A,,Scattered Clouds,230,2012-12-10 17:55:00
1:15 PM,71.6,60.8,69,29.81,10.0,WSW,15.0,23.0,N/A,,Mostly Cloudy,240,2012-12-10 18:15:00
1:35 PM,73.0,59.4,62,29.80,10.0,SW,12.7,23.0,N/A,,Scattered Clouds,220,2012-12-10 18:35:00
1:55 PM,71.8,59.4,65,29.78,10.0,SW,12.7,18.4,N/A,,Scattered Clouds,230,2012-12-10 18:55:00
2:15 PM,72.5,58.5,61,29.78,10.0,SW,12.7,20.7,N/A,,Clear,230,2012-12-10 19:15:00
2:35 PM,71.8,58.1,62,29.77,10.0,SW,10.4,18.4,N/A,,Clear,230,2012-12-10 19:35:00
2:55 PM,72.7,58.5,61,29.77,10.0,SW,8.1,-,N/A,,Clear,220,2012-12-10 19:55:00
3:15 PM,72.1,57.7,60,29.77,10.0,SSW,5.8,17.3,N/A,,Clear,210,2012-12-10 20:15:00
3:35 PM,72.1,57.6,60,29.77,10.0,SSW,8.1,-,N/A,,Clear,210,2012-12-10 20:35:00
3:55 PM,72.7,58.1,60,29.78,10.0,SW,10.4,18.4,N/A,,Clear,230,2012-12-10 20:55:00
4:15 PM,71.6,57.9,62,29.77,10.0,SW,5.8,-,N/A,,Scattered Clouds,220,2012-12-10 21:15:00
4:35 PM,70.9,58.1,64,29.77,10.0,South,3.5,-,N/A,,Scattered Clouds,180,2012-12-10 21:35:00
4:55 PM,70.3,57.6,64,29.77,10.0,SSW,3.5,-,N/A,,Clear,200,2012-12-10 21:55:00
5:15 PM,69.1,57.4,66,29.77,10.0,South,3.5,-,N/A,,Clear,190,2012-12-10 22:15:00
5:35 PM,68.2,57.6,69,29.77,10.0,South,3.5,-,N/A,,Clear,190,2012-12-10 22:35:00
5:55 PM,66.6,57.7,73,29.77,10.0,South,3.5,-,N/A,,Clear,180,2012-12-10 22:55:00
6:15 PM,65.3,57.7,76,29.77,10.0,South,3.5,-,N/A,,Clear,170,2012-12-10 23:15:00
6:35 PM,65.7,58.5,78,29.78,10.0,South,6.9,-,N/A,,Clear,170,2012-12-10 23:35:00
6:55 PM,65.3,59.9,83,29.78,10.0,South,5.8,-,N/A,,Scattered Clouds,170,2012-12-10 23:55:00
7:15 PM,64.8,60.1,85,29.79,10.0,South,5.8,-,N/A,,Scattered Clouds,180,2012-12-11 00:15:00
7:35 PM,64.6,60.3,86,29.79,10.0,South,5.8,-,N/A,,Scattered Clouds,180,2012-12-11 00:35:00
7:55 PM,64.4,60.1,86,29.79,10.0,South,4.6,-,N/A,,Clear,190,2012-12-11 00:55:00
8:15 PM,64.0,60.1,87,29.78,10.0,South,4.6,-,N/A,,Clear,180,2012-12-11 01:15:00
8:35 PM,63.7,60.3,89,29.77,10.0,South,3.5,-,N/A,,Clear,190,2012-12-11 01:35:00
8:55 PM,64.0,60.4,88,29.77,10.0,South,3.5,-,N/A,,Clear,180,2012-12-11 01:55:00
9:15 PM,64.0,60.3,87,29.76,10.0,South,5.8,-,N/A,,Clear,180,2012-12-11 02:15:00
9:35 PM,64.4,60.8,88,29.76,10.0,South,3.5,-,N/A,,Clear,170,2012-12-11 02:35:00
9:55 PM,63.5,59.9,88,29.77,10.0,South,3.5,-,N/A,,Clear,190,2012-12-11 02:55:00
10:15 PM,63.9,59.5,86,29.77,10.0,South,4.6,-,N/A,,Clear,180,2012-12-11 03:15:00
10:35 PM,64.0,59.4,85,29.78,10.0,SSW,4.6,-,N/A,,Clear,210,2012-12-11 03:35:00
10:55 PM,64.2,59.0,83,29.78,10.0,SSW,4.6,-,N/A,,Clear,200,2012-12-11 03:55:00
11:15 PM,63.7,59.0,85,29.77,10.0,South,4.6,-,N/A,,Clear,190,2012-12-11 04:15:00
11:35 PM,63.7,58.8,84,29.77,10.0,South,4.6,-,N/A,,Clear,180,2012-12-11 04:35:00
11:55 PM,63.5,58.5,84,29.77,10.0,South,4.6,-,N/A,,Scattered Clouds,180,2012-12-11 04:55:00